TNO1122 KTLH-KCHS

Flight info

Callsign TNO1122
Flight time 1h 11m
Altitude 21000
Route TAY
Aircraft B350/L-SBGRW/S

Departure

Time 2026-05-09 09:36
Airport Tallahassee International Airport (KTLH)

Arrival

Time 2026-05-09 10:47
Airport Charleston International Airport (KCHS)
Time Latitude Longitude Altitude Speed Heading
2026-05-09 09:24 30.40033 -84.35582 85 ft 0 kts 180°
2026-05-09 09:32 30.40053 -84.35573 86 ft 3 kts 225°
2026-05-09 09:32 30.40046 -84.35598 86 ft 7 kts 250°
2026-05-09 09:32 30.39994 -84.35678 86 ft 16 kts 220°
2026-05-09 09:32 30.39916 -84.35728 86 ft 10 kts 179°
2026-05-09 09:33 30.39821 -84.35729 86 ft 13 kts 178°
2026-05-09 09:33 30.39737 -84.35727 86 ft 15 kts 179°
2026-05-09 09:33 30.39620 -84.35727 86 ft 22 kts 181°
2026-05-09 09:33 30.39508 -84.35754 86 ft 12 kts 254°
2026-05-09 09:34 30.39502 -84.35850 86 ft 11 kts 268°
2026-05-09 09:34 30.39529 -84.35880 86 ft 0 kts
2026-05-09 09:34 30.39665 -84.35882 86 ft 78 kts 359°
2026-05-09 09:36 30.47280 -84.33715 2196 ft 206 kts 76°
2026-05-09 09:36 30.47209 -84.32049 2635 ft 209 kts 101°
2026-05-09 09:36 30.46837 -84.30397 3058 ft 214 kts 108°
2026-05-09 09:37 30.46392 -84.28732 3488 ft 217 kts 110°
2026-05-09 09:37 30.45930 -84.27057 3921 ft 217 kts 111°
2026-05-09 09:37 30.45474 -84.25407 4340 ft 215 kts 111°
2026-05-09 09:37 30.45020 -84.23749 4763 ft 215 kts 111°
2026-05-09 09:38 30.44576 -84.22113 5179 ft 213 kts 111°
2026-05-09 09:38 30.44134 -84.20470 5595 ft 213 kts 111°
2026-05-09 09:38 30.43694 -84.18823 6000 ft 214 kts 111°
2026-05-09 09:38 30.43264 -84.17187 6413 ft 215 kts 111°
2026-05-09 09:39 30.42832 -84.15520 6840 ft 217 kts 111°
2026-05-09 09:39 30.42433 -84.13833 7281 ft 218 kts 107°
2026-05-09 09:39 30.42136 -84.12096 7706 ft 221 kts 102°
2026-05-09 09:39 30.41951 -84.10317 8134 ft 223 kts 98°
2026-05-09 09:40 30.41859 -84.08512 8563 ft 225 kts 95°
2026-05-09 09:40 30.41834 -84.06690 8978 ft 227 kts 92°
2026-05-09 09:40 30.41857 -84.04851 9408 ft 229 kts 90°
2026-05-09 09:40 30.41911 -84.03021 9830 ft 231 kts 89°
2026-05-09 09:41 30.41988 -84.01146 10264 ft 233 kts 88°
2026-05-09 09:41 30.42079 -83.99265 10700 ft 235 kts 87°
2026-05-09 09:41 30.42180 -83.97390 11124 ft 237 kts 86°
2026-05-09 09:41 30.42290 -83.95465 11554 ft 239 kts 85°
2026-05-09 09:42 30.42404 -83.93554 11975 ft 241 kts 85°
2026-05-09 09:42 30.42523 -83.91599 12400 ft 243 kts 85°
2026-05-09 09:42 30.42645 -83.89640 12752 ft 248 kts 85°
2026-05-09 09:42 30.42772 -83.87614 13071 ft 252 kts 85°
2026-05-09 09:43 30.42899 -83.85570 13400 ft 255 kts 85°
2026-05-09 09:43 30.43028 -83.83521 13725 ft 258 kts 85°
2026-05-09 09:43 30.43159 -83.81430 14053 ft 260 kts 85°
2026-05-09 09:43 30.43291 -83.79334 14386 ft 262 kts 85°
2026-05-09 09:44 30.43421 -83.77247 14712 ft 263 kts 85°
2026-05-09 09:44 30.43553 -83.75122 15034 ft 265 kts 85°
2026-05-09 09:44 30.43686 -83.72983 15359 ft 267 kts 85°
2026-05-09 09:44 30.43820 -83.70824 15686 ft 268 kts 85°
2026-05-09 09:45 30.43955 -83.68660 16011 ft 270 kts 85°
2026-05-09 09:45 30.44089 -83.66478 16338 ft 272 kts 85°
2026-05-09 09:45 30.44224 -83.64291 16663 ft 273 kts 86°
2026-05-09 09:45 30.44358 -83.62110 16985 ft 275 kts 86°
2026-05-09 09:46 30.44494 -83.59890 17311 ft 277 kts 86°
2026-05-09 09:46 30.44630 -83.57655 17635 ft 278 kts 86°
2026-05-09 09:46 30.44767 -83.55409 17960 ft 280 kts 86°
2026-05-09 09:46 30.44904 -83.53146 18286 ft 282 kts 86°
2026-05-09 09:47 30.45042 -83.50878 18612 ft 283 kts 86°
2026-05-09 09:47 30.45180 -83.48591 18938 ft 285 kts 86°
2026-05-09 09:47 30.45317 -83.46314 19260 ft 286 kts 86°
2026-05-09 09:47 30.45457 -83.43989 19588 ft 288 kts 86°
2026-05-09 09:48 30.45596 -83.41669 19913 ft 289 kts 87°
2026-05-09 09:48 30.45733 -83.39363 20235 ft 290 kts 87°
2026-05-09 09:48 30.45873 -83.37014 20562 ft 291 kts 87°
2026-05-09 09:48 30.46012 -83.34657 20889 ft 293 kts 87°
2026-05-09 09:49 30.46151 -83.32310 21212 ft 294 kts 87°
2026-05-09 09:49 30.46291 -83.29934 21447 ft 299 kts 87°
2026-05-09 09:49 30.46432 -83.27517 21547 ft 306 kts 87°
2026-05-09 09:49 30.46577 -83.25027 21567 ft 312 kts 87°
2026-05-09 09:50 30.46724 -83.22499 21563 ft 315 kts 87°
2026-05-09 09:50 30.46871 -83.19966 21558 ft 317 kts 87°
2026-05-09 09:50 30.47018 -83.17426 21560 ft 318 kts 87°
2026-05-09 09:50 30.47167 -83.14860 21562 ft 318 kts 87°
2026-05-09 09:51 30.47314 -83.12317 21561 ft 318 kts 87°
2026-05-09 09:51 30.47462 -83.09744 21559 ft 318 kts 87°
2026-05-09 09:51 30.47609 -83.07174 21556 ft 318 kts 87°
2026-05-09 09:51 30.47755 -83.04610 21553 ft 318 kts 87°
2026-05-09 09:52 30.47901 -83.02051 21550 ft 319 kts 87°
2026-05-09 09:52 30.48044 -82.99521 21548 ft 319 kts 87°
2026-05-09 09:52 30.48189 -82.96959 21544 ft 319 kts 87°
2026-05-09 09:52 30.48333 -82.94397 21541 ft 319 kts 87°
2026-05-09 09:53 30.48476 -82.91832 21538 ft 319 kts 87°
2026-05-09 09:53 30.48620 -82.89261 21535 ft 318 kts 87°
2026-05-09 09:53 30.48762 -82.86696 21533 ft 319 kts 87°
2026-05-09 09:53 30.48904 -82.84132 21530 ft 319 kts 88°
2026-05-09 09:54 30.49046 -82.81569 21527 ft 319 kts 88°
2026-05-09 09:54 30.49187 -82.79006 21525 ft 318 kts 88°
2026-05-09 09:54 30.49327 -82.76444 21519 ft 319 kts 88°
2026-05-09 09:54 30.49467 -82.73880 21505 ft 318 kts 88°
2026-05-09 09:55 30.49605 -82.71344 21499 ft 318 kts 88°
2026-05-09 09:55 30.49744 -82.68775 21495 ft 318 kts 88°
2026-05-09 09:55 30.49882 -82.66215 21344 ft 316 kts 88°
2026-05-09 09:55 30.50017 -82.63709 21103 ft 309 kts 88°
2026-05-09 09:56 30.50150 -82.61254 20996 ft 299 kts 88°
2026-05-09 09:56 30.50342 -82.58920 20960 ft 290 kts 77°
2026-05-09 09:56 30.51092 -82.56775 20959 ft 278 kts 55°
2026-05-09 09:56 30.52138 -82.54973 20965 ft 269 kts 45°
2026-05-09 09:57 30.53335 -82.53309 20968 ft 267 kts 40°
2026-05-09 09:57 30.54608 -82.51738 20972 ft 270 kts 37°
2026-05-09 09:57 30.55952 -82.50189 20973 ft 273 kts 36°
2026-05-09 09:57 30.57319 -82.48677 20973 ft 274 kts 34°
2026-05-09 09:58 30.58723 -82.47163 20973 ft 275 kts 34°
2026-05-09 09:58 30.60124 -82.45679 20973 ft 276 kts 33°
2026-05-09 09:58 30.61561 -82.44175 20974 ft 278 kts 33°
2026-05-09 09:58 30.63009 -82.42672 20974 ft 278 kts 33°
2026-05-09 09:59 30.64450 -82.41183 20974 ft 279 kts 33°
2026-05-09 09:59 30.65913 -82.39678 20974 ft 279 kts 33°
2026-05-09 09:59 30.67348 -82.38205 20973 ft 279 kts 32°
2026-05-09 09:59 30.68813 -82.36703 20976 ft 279 kts 32°
2026-05-09 10:00 30.70280 -82.35201 20978 ft 279 kts 32°
2026-05-09 10:00 30.71722 -82.33727 20976 ft 279 kts 32°
2026-05-09 10:00 30.73192 -82.32224 20976 ft 279 kts 32°
2026-05-09 10:00 30.74640 -82.30745 20976 ft 279 kts 32°
2026-05-09 10:01 30.76108 -82.29245 20976 ft 279 kts 32°
2026-05-09 10:01 30.77558 -82.27764 20976 ft 280 kts 32°
2026-05-09 10:01 30.79025 -82.26265 20977 ft 279 kts 32°
2026-05-09 10:01 30.80476 -82.24782 20977 ft 279 kts 32°
2026-05-09 10:02 30.81941 -82.23283 20977 ft 279 kts 32°
2026-05-09 10:02 30.83385 -82.21807 20977 ft 279 kts 32°
2026-05-09 10:02 30.84848 -82.20311 20975 ft 279 kts 32°
2026-05-09 10:02 30.86296 -82.18829 20976 ft 279 kts 32°
2026-05-09 10:03 30.87756 -82.17335 20977 ft 279 kts 32°
2026-05-09 10:03 30.89204 -82.15853 20977 ft 279 kts 32°
2026-05-09 10:03 30.90669 -82.14352 20977 ft 279 kts 32°
2026-05-09 10:03 30.92133 -82.12852 20975 ft 279 kts 32°
2026-05-09 10:04 30.93587 -82.11362 20974 ft 279 kts 32°
2026-05-09 10:04 30.95037 -82.09874 20974 ft 279 kts 32°
2026-05-09 10:04 30.96484 -82.08390 20974 ft 279 kts 32°
2026-05-09 10:04 30.97947 -82.06887 20974 ft 279 kts 32°
2026-05-09 10:05 30.99390 -82.05405 20974 ft 278 kts 32°
2026-05-09 10:05 31.00847 -82.03908 20975 ft 278 kts 32°
2026-05-09 10:05 31.02303 -82.02412 20975 ft 278 kts 32°
2026-05-09 10:05 31.03740 -82.00934 20976 ft 278 kts 32°
2026-05-09 10:06 31.05202 -81.99431 20978 ft 278 kts 32°
2026-05-09 10:06 31.06639 -81.97951 20980 ft 278 kts 32°
2026-05-09 10:06 31.08086 -81.96462 20980 ft 279 kts 32°
2026-05-09 10:06 31.09544 -81.94961 20980 ft 279 kts 32°
2026-05-09 10:07 31.11009 -81.93452 20981 ft 279 kts 32°
2026-05-09 10:07 31.12449 -81.91968 20981 ft 279 kts 32°
2026-05-09 10:07 31.13910 -81.90461 20983 ft 278 kts 32°
2026-05-09 10:07 31.15352 -81.88973 20984 ft 278 kts 32°
2026-05-09 10:08 31.16790 -81.87488 20987 ft 278 kts 32°
2026-05-09 10:08 31.18249 -81.85983 20988 ft 278 kts 32°
2026-05-09 10:08 31.19686 -81.84498 20988 ft 278 kts 32°
2026-05-09 10:08 31.21144 -81.82991 20989 ft 278 kts 32°
2026-05-09 10:09 31.22582 -81.81505 20990 ft 278 kts 32°
2026-05-09 10:09 31.24034 -81.80002 20990 ft 278 kts 32°
2026-05-09 10:09 31.25491 -81.78495 20990 ft 278 kts 32°
2026-05-09 10:09 31.26928 -81.77008 20989 ft 278 kts 32°
2026-05-09 10:10 31.28385 -81.75499 20988 ft 278 kts 32°
2026-05-09 10:10 31.29821 -81.74011 20988 ft 278 kts 32°
2026-05-09 10:10 31.31279 -81.72500 20988 ft 278 kts 32°
2026-05-09 10:10 31.32717 -81.71010 20993 ft 278 kts 32°
2026-05-09 10:11 31.34167 -81.69504 20991 ft 277 kts 32°
2026-05-09 10:11 31.35603 -81.68012 20989 ft 276 kts 32°
2026-05-09 10:11 31.37011 -81.66542 20990 ft 265 kts 32°
2026-05-09 10:11 31.38349 -81.65138 20984 ft 257 kts 31°
2026-05-09 10:12 31.39656 -81.63770 20984 ft 251 kts 31°
2026-05-09 10:12 31.40958 -81.62413 20987 ft 247 kts 31°
2026-05-09 10:12 31.42227 -81.61093 20986 ft 244 kts 30°
2026-05-09 10:12 31.43503 -81.59768 20986 ft 242 kts 30°
2026-05-09 10:13 31.44747 -81.58477 20985 ft 240 kts 30°
2026-05-09 10:13 31.45999 -81.57178 20987 ft 239 kts 30°
2026-05-09 10:13 31.47252 -81.55877 20989 ft 238 kts 30°
2026-05-09 10:13 31.48477 -81.54605 20988 ft 238 kts 30°
2026-05-09 10:14 31.49717 -81.53316 20988 ft 238 kts 30°
2026-05-09 10:14 31.50958 -81.52024 20988 ft 237 kts 30°
2026-05-09 10:14 31.52182 -81.50750 20980 ft 237 kts 30°
2026-05-09 10:14 31.53423 -81.49457 20974 ft 237 kts 30°
2026-05-09 10:15 31.54647 -81.48180 20972 ft 237 kts 30°
2026-05-09 10:15 31.55876 -81.46897 20972 ft 237 kts 30°
2026-05-09 10:15 31.57111 -81.45608 20973 ft 237 kts 30°
2026-05-09 10:15 31.58345 -81.44318 20972 ft 237 kts 30°
2026-05-09 10:16 31.59567 -81.43041 20970 ft 237 kts 30°
2026-05-09 10:16 31.60802 -81.41751 20968 ft 237 kts 30°
2026-05-09 10:16 31.62020 -81.40477 20968 ft 237 kts 30°
2026-05-09 10:16 31.63253 -81.39185 20964 ft 237 kts 30°
2026-05-09 10:17 31.64490 -81.37890 20962 ft 237 kts 30°
2026-05-09 10:17 31.65710 -81.36613 20966 ft 236 kts 30°
2026-05-09 10:17 31.66940 -81.35324 20963 ft 236 kts 30°
2026-05-09 10:17 31.68159 -81.34047 20961 ft 236 kts 30°
2026-05-09 10:18 31.69391 -81.32755 20961 ft 236 kts 30°
2026-05-09 10:18 31.70609 -81.31477 20958 ft 236 kts 30°
2026-05-09 10:18 31.71839 -81.30187 20957 ft 236 kts 30°
2026-05-09 10:18 31.73056 -81.28910 20956 ft 236 kts 30°
2026-05-09 10:19 31.74288 -81.27616 20955 ft 237 kts 31°
2026-05-09 10:19 31.75223 -81.26515 20955 ft 241 kts 36°
2026-05-09 10:19 31.76333 -81.25059 20954 ft 242 kts 39°
2026-05-09 10:19 31.77446 -81.23552 20952 ft 242 kts 39°
2026-05-09 10:20 31.78539 -81.22062 20951 ft 243 kts 39°
2026-05-09 10:20 31.79646 -81.20553 20950 ft 243 kts 39°
2026-05-09 10:20 31.80753 -81.19042 20950 ft 243 kts 39°
2026-05-09 10:20 31.81847 -81.17550 20950 ft 243 kts 39°
2026-05-09 10:21 31.82961 -81.16039 20750 ft 253 kts 39°
2026-05-09 10:21 31.84148 -81.14458 20476 ft 262 kts 39°
2026-05-09 10:21 31.85379 -81.12838 20171 ft 268 kts 39°
2026-05-09 10:21 31.86641 -81.11193 19850 ft 272 kts 39°
2026-05-09 10:22 31.87914 -81.09549 19533 ft 274 kts 39°
2026-05-09 10:22 31.89206 -81.07884 19205 ft 275 kts 39°
2026-05-09 10:22 31.90489 -81.06234 18882 ft 275 kts 39°
2026-05-09 10:22 31.91772 -81.04585 18560 ft 275 kts 39°
2026-05-09 10:23 31.93072 -81.02920 18233 ft 274 kts 39°
2026-05-09 10:23 31.94363 -81.01268 17907 ft 273 kts 39°
2026-05-09 10:23 31.95636 -80.99643 17584 ft 272 kts 39°
2026-05-09 10:23 31.96925 -80.98005 17257 ft 271 kts 39°
2026-05-09 10:24 31.98201 -80.96393 16933 ft 270 kts 39°
2026-05-09 10:24 31.99475 -80.94793 16611 ft 269 kts 39°
2026-05-09 10:24 32.00764 -80.93185 16284 ft 269 kts 39°
2026-05-09 10:24 32.02051 -80.91586 15958 ft 268 kts 39°
2026-05-09 10:25 32.03326 -80.90000 15635 ft 268 kts 41°
2026-05-09 10:25 32.04564 -80.88334 15309 ft 269 kts 43°
2026-05-09 10:25 32.05762 -80.86661 14986 ft 269 kts 45°
2026-05-09 10:25 32.06929 -80.84915 14660 ft 270 kts 47°
2026-05-09 10:26 32.08059 -80.83167 14338 ft 270 kts 48°
2026-05-09 10:26 32.09199 -80.81395 14011 ft 270 kts 48°
2026-05-09 10:26 32.10341 -80.79622 13684 ft 270 kts 49°
2026-05-09 10:26 32.11432 -80.77852 13362 ft 270 kts 50°
2026-05-09 10:27 32.12522 -80.76045 13034 ft 269 kts 51°
2026-05-09 10:27 32.13609 -80.74242 12709 ft 269 kts 51°
2026-05-09 10:27 32.14689 -80.72463 12386 ft 268 kts 51°
2026-05-09 10:27 32.15785 -80.70669 12058 ft 267 kts 51°
2026-05-09 10:28 32.16869 -80.68909 11736 ft 267 kts 51°
2026-05-09 10:28 32.17968 -80.67134 11407 ft 265 kts 51°
2026-05-09 10:28 32.19049 -80.65399 11085 ft 264 kts 51°
2026-05-09 10:28 32.20138 -80.63662 10759 ft 262 kts 51°
2026-05-09 10:29 32.21223 -80.61942 10433 ft 259 kts 51°
2026-05-09 10:29 32.22296 -80.60255 10110 ft 256 kts 51°
2026-05-09 10:29 32.23355 -80.58601 9787 ft 253 kts 51°
2026-05-09 10:29 32.24420 -80.56951 9460 ft 250 kts 51°
2026-05-09 10:30 32.25482 -80.55319 9133 ft 248 kts 51°
2026-05-09 10:30 32.26524 -80.53729 8811 ft 246 kts 51°
2026-05-09 10:30 32.27580 -80.52127 8483 ft 244 kts 51°
2026-05-09 10:30 32.28614 -80.50566 8160 ft 242 kts 50°
2026-05-09 10:31 32.29654 -80.48997 7833 ft 240 kts 50°
2026-05-09 10:31 32.30675 -80.47455 7510 ft 239 kts 51°
2026-05-09 10:31 32.31702 -80.45907 7183 ft 238 kts 51°
2026-05-09 10:31 32.32710 -80.44389 6861 ft 236 kts 51°
2026-05-09 10:32 32.33731 -80.42852 6533 ft 235 kts 50°
2026-05-09 10:32 32.34398 -80.41848 6317 ft 234 kts 50°
2026-05-09 10:32 32.35734 -80.39837 5883 ft 232 kts 50°
2026-05-09 10:32 32.36397 -80.38842 5668 ft 231 kts 51°
2026-05-09 10:33 32.37724 -80.36864 5238 ft 230 kts 51°
2026-05-09 10:33 32.38381 -80.35893 5129 ft 224 kts 51°
2026-05-09 10:33 32.39341 -80.34478 5026 ft 215 kts 50°
2026-05-09 10:33 32.40259 -80.33105 4998 ft 211 kts 53°
2026-05-09 10:34 32.41067 -80.31678 4996 ft 210 kts 57°
2026-05-09 10:34 32.42641 -80.28774 4996 ft 209 kts 54°
2026-05-09 10:34 32.43521 -80.27388 4997 ft 209 kts 52°
2026-05-09 10:35 32.44142 -80.26438 4997 ft 209 kts 51°
2026-05-09 10:35 32.45039 -80.25076 4997 ft 207 kts 51°
2026-05-09 10:35 32.45916 -80.23748 4999 ft 207 kts 51°
2026-05-09 10:35 32.46813 -80.22391 5002 ft 211 kts 51°
2026-05-09 10:36 32.47738 -80.20993 5003 ft 218 kts 51°
2026-05-09 10:36 32.48680 -80.19571 5002 ft 224 kts 51°
2026-05-09 10:36 32.49652 -80.18104 5001 ft 227 kts 51°
2026-05-09 10:36 32.50631 -80.16628 5001 ft 229 kts 51°
2026-05-09 10:37 32.51203 -80.15765 5001 ft 229 kts 51°
2026-05-09 10:37 32.52193 -80.14272 5001 ft 230 kts 51°
2026-05-09 10:37 32.53176 -80.12791 5001 ft 230 kts 51°
2026-05-09 10:37 32.54170 -80.11294 5002 ft 230 kts 51°
2026-05-09 10:38 32.55149 -80.09819 5003 ft 230 kts 51°
2026-05-09 10:38 32.56145 -80.08319 5003 ft 230 kts 51°
2026-05-09 10:38 32.57125 -80.06844 5004 ft 230 kts 51°
2026-05-09 10:38 32.58120 -80.05348 5004 ft 230 kts 51°
2026-05-09 10:39 32.59117 -80.03848 5004 ft 230 kts 51°
2026-05-09 10:39 32.60104 -80.02364 4890 ft 235 kts 51°
2026-05-09 10:39 32.61126 -80.00831 4794 ft 235 kts 51°
2026-05-09 10:39 32.62135 -79.99322 4697 ft 235 kts 51°
2026-05-09 10:40 32.63158 -79.97795 4601 ft 234 kts 51°
2026-05-09 10:40 32.64166 -79.96296 4474 ft 235 kts 51°
2026-05-09 10:40 32.65193 -79.94775 4325 ft 236 kts 51°
2026-05-09 10:40 32.66220 -79.93258 4177 ft 234 kts 51°
2026-05-09 10:41 32.67226 -79.91780 4022 ft 226 kts 51°
2026-05-09 10:41 32.68195 -79.90362 3869 ft 218 kts 51°
2026-05-09 10:41 32.69322 -79.89213 3695 ft 212 kts 25°
2026-05-09 10:41 32.70714 -79.88953 3578 ft 202 kts 350°
2026-05-09 10:42 32.71998 -79.89529 3535 ft 192 kts 327°
2026-05-09 10:42 32.73051 -79.90425 3515 ft 186 kts 317°
2026-05-09 10:42 32.74033 -79.91451 3522 ft 189 kts 315°
2026-05-09 10:42 32.75027 -79.92502 3445 ft 197 kts 316°
2026-05-09 10:43 32.76129 -79.93556 3207 ft 208 kts 321°
2026-05-09 10:43 32.77270 -79.94480 3032 ft 191 kts 325°
2026-05-09 10:43 32.78398 -79.95264 2735 ft 186 kts 329°
2026-05-09 10:43 32.79501 -79.95979 2426 ft 169 kts 329°
2026-05-09 10:44 32.80473 -79.96621 2181 ft 156 kts 328°
2026-05-09 10:44 32.81390 -79.97272 1921 ft 154 kts 327°
2026-05-09 10:44 32.82299 -79.97960 1679 ft 153 kts 325°
2026-05-09 10:44 32.83179 -79.98647 1463 ft 151 kts 325°
2026-05-09 10:45 32.84049 -79.99340 1255 ft 148 kts 326°
2026-05-09 10:46 32.87456 -80.01904 501 ft 142 kts 327°
2026-05-09 10:46 32.88283 -80.02533 316 ft 142 kts 327°
2026-05-09 10:46 32.89121 -80.03169 118 ft 140 kts 327°
2026-05-09 10:46 32.89864 -80.03728 51 ft 111 kts 327°
2026-05-09 10:47 32.90360 -80.04100 50 ft 52 kts 328°
2026-05-09 10:47 32.90562 -80.04251 50 ft 31 kts 327°
2026-05-09 10:47 32.90714 -80.04369 50 ft 23 kts 327°
2026-05-09 10:47 32.90782 -80.04479 50 ft 19 kts 252°
2026-05-09 10:48 32.90705 -80.04618 50 ft 16 kts 230°
2026-05-09 10:48 32.90650 -80.04714 50 ft 10 kts 274°
2026-05-09 10:48 32.90701 -80.04759 50 ft 10 kts 321°
2026-05-09 10:48 32.90688 -80.04813 50 ft 1 kts 238°
2026-05-09 10:49 32.90688 -80.04814 50 ft 0 kts 238°